| time (UTC) | temp C | wind direction | speed KPH | gust KPH | rain 1hr cm | rain 24hr cm | rain mn cm | humidity % | barometer mb |
| 20260906190045 | 30 | 47 | 3.2 | 0.0 | 0.00 | 0.00 | 0.00 | 66 | 1012.7 |
| 20260906184509 | 28 | 316 | 3.2 | 0.0 | 0.00 | 0.00 | 0.00 | 70 | 1013.0 |
| 20260906183012 | 28 | 350 | 1.6 | 0.0 | 0.00 | 0.00 | 0.00 | 74 | 1013.0 |
| 20260906181513 | 27 | 332 | 3.2 | 0.0 | 0.00 | 0.00 | 0.00 | 74 | 1013.1 |
| 20260906180055 | 27 | 355 | 1.6 | 0.0 | 0.00 | 0.00 | 0.00 | 74 | 1013.2 |
| 20260906174546 | 27 | 347 | 0.0 | 0.0 | 0.00 | 0.00 | 0.00 | 75 | 1013.5 |
| 20260906173054 | 27 | 49 | 3.2 | 0.0 | 0.00 | 0.00 | 0.00 | 75 | 1013.4 |
| 20260906170008 | 26 | 32 | 1.6 | 0.0 | 0.00 | 0.00 | 0.00 | 75 | 1013.6 |
| 20260906164518 | 26 | 80 | 3.2 | 0.0 | 0.00 | 0.00 | 0.00 | 76 | 1014.1 |
| 20260906163028 | 26 | 55 | 1.6 | 0.0 | 0.00 | 0.00 | 0.00 | 77 | 1014.1 |
| 20260906161536 | 26 | 360 | 0.0 | 0.0 | 0.00 | 0.00 | 0.00 | 78 | 1014.1 |
| 20260906160104 | 26 | 258 | 1.6 | 0.0 | 0.00 | 0.00 | 0.00 | 78 | 1014.1 |
| 20260906154530 | 26 | 250 | 1.6 | 0.0 | 0.00 | 0.00 | 0.00 | 80 | 1014.2 |
| 20260906153041 | 25 | 336 | 0.0 | 0.0 | 0.00 | 0.00 | 0.00 | 80 | 1014.3 |
| 20260906151600 | 25 | 348 | 0.0 | 0.0 | 0.00 | 0.00 | 0.00 | 80 | 1014.0 |
| 20260906150013 | 25 | 298 | 3.2 | 0.0 | 0.00 | 0.00 | 0.00 | 80 | 1013.9 |
| 20260906144536 | 25 | 304 | 3.2 | 0.0 | 0.00 | 0.00 | 0.00 | 81 | 1013.9 |
| 20260906143051 | 25 | 271 | 4.8 | 0.0 | 0.00 | 0.00 | 0.00 | 82 | 1014.1 |
| 20260906141607 | 24 | 274 | 1.6 | 0.0 | 0.00 | 0.00 | 0.00 | 83 | 1013.9 |
| 20260906140007 | 23 | 270 | 4.8 | 0.0 | 0.00 | 0.00 | 0.00 | 83 | 1014.0 |
| 20260906134516 | 23 | 214 | 3.2 | 0.0 | 0.00 | 0.00 | 0.00 | 84 | 1014.0 |
| 20260906133024 | 23 | 218 | 4.8 | 0.0 | 0.00 | 0.00 | 0.00 | 84 | 1014.1 |
| 20260906131540 | 22 | 184 | 4.8 | 0.0 | 0.00 | 0.00 | 0.00 | 83 | 1014.0 |
| 20260906130119 | 22 | 263 | 9.7 | 0.0 | 0.00 | 0.00 | 0.00 | 82 | 1014.2 |
| 20260906124535 | 22 | 115 | 4.8 | 0.0 | 0.00 | 0.00 | 0.00 | 82 | 1013.0 |
| 20260906123001 | 22 | 117 | 3.2 | 0.0 | 0.00 | 0.00 | 0.00 | 82 | 1012.8 |
| 20260906121542 | 22 | 105 | 4.8 | 0.0 | 0.00 | 0.00 | 0.00 | 82 | 1012.7 |
| 20260906120034 | 22 | 102 | 4.8 | 0.0 | 0.00 | 0.00 | 0.00 | 82 | 1012.6 |
| 20260906114508 | 22 | 82 | 3.2 | 0.0 | 0.00 | 0.00 | 0.00 | 82 | 1012.5 |
| 20260906113011 | 22 | 110 | 3.2 | 0.0 | 0.00 | 0.00 | 0.00 | 82 | 1012.3 |
| 20260906111538 | 22 | 111 | 3.2 | 0.0 | 0.00 | 0.00 | 0.00 | 82 | 1012.1 |
| 20260906110046 | 22 | 117 | 4.8 | 0.0 | 0.00 | 0.00 | 0.00 | 82 | 1012.1 |
| 20260906104522 | 22 | 104 | 3.2 | 0.0 | 0.00 | 0.00 | 0.00 | 82 | 1012.2 |
| 20260906103059 | 22 | 102 | 3.2 | 0.0 | 0.00 | 0.00 | 0.00 | 82 | 1012.2 |
| 20260906101533 | 22 | 115 | 1.6 | 0.0 | 0.00 | 0.00 | 0.00 | 82 | 1012.2 |
| 20260906094526 | 22 | 90 | 1.6 | 0.0 | 0.00 | 0.00 | 0.00 | 82 | 1012.0 |
| 20260906093048 | 22 | 68 | 1.6 | 0.0 | 0.00 | 0.00 | 0.00 | 82 | 1012.1 |
| 20260906091600 | 22 | 88 | 0.0 | 0.0 | 0.00 | 0.00 | 0.00 | 83 | 1012.1 |
| 20260906090110 | 22 | 74 | 0.0 | 0.0 | 0.00 | 0.00 | 0.00 | 83 | 1012.0 |
| 20260906084525 | 22 | 74 | 0.0 | 0.0 | 0.00 | 0.00 | 0.00 | 83 | 1012.1 |
| 20260906083059 | 22 | 57 | 1.6 | 0.0 | 0.00 | 0.00 | 0.00 | 83 | 1012.0 |
| 20260906081530 | 22 | 92 | 1.6 | 0.0 | 0.00 | 0.00 | 0.00 | 83 | 1012.1 |
| 20260906080013 | 22 | 82 | 1.6 | 0.0 | 0.00 | 0.00 | 0.00 | 83 | 1012.1 |
| 20260906074531 | 22 | 61 | 3.2 | 0.0 | 0.00 | 0.00 | 0.00 | 84 | 1011.9 |
| 20260906073048 | 22 | 71 | 1.6 | 0.0 | 0.00 | 0.00 | 0.00 | 84 | 1011.9 |
| 20260906071603 | 22 | 89 | 3.2 | 0.0 | 0.00 | 0.00 | 0.00 | 84 | 1011.8 |
| 20260906070032 | 22 | 93 | 3.2 | 0.0 | 0.00 | 0.00 | 0.00 | 83 | 1011.8 |
| 20260906064559 | 22 | 74 | 3.2 | 0.0 | 0.00 | 0.00 | 0.00 | 84 | 1011.8 |
| 20260906063031 | 22 | 90 | 4.8 | 0.0 | 0.00 | 0.00 | 0.00 | 84 | 1011.8 |
| 20260906061604 | 23 | 74 | 3.2 | 0.0 | 0.00 | 0.00 | 0.00 | 83 | 1011.9 |
| 20260906060035 | 23 | 92 | 4.8 | 0.0 | 0.00 | 0.00 | 0.00 | 83 | 1011.9 |
| 20260906054606 | 23 | 92 | 4.8 | 0.0 | 0.00 | 0.00 | 0.00 | 83 | 1012.0 |
| 20260906053006 | 23 | 85 | 4.8 | 0.0 | 0.00 | 0.00 | 0.00 | 83 | 1012.0 |
| 20260906051612 | 23 | 88 | 4.8 | 0.0 | 0.00 | 0.00 | 0.00 | 83 | 1012.0 |
| 20260906050026 | 23 | 92 | 3.2 | 0.0 | 0.00 | 0.00 | 0.00 | 83 | 1011.9 |
| 20260906044607 | 23 | 87 | 4.8 | 0.0 | 0.00 | 0.00 | 0.00 | 83 | 1011.8 |
| 20260906043018 | 24 | 90 | 3.2 | 0.0 | 0.00 | 0.00 | 0.00 | 83 | 1011.9 |
| 20260906041535 | 24 | 98 | 3.2 | 0.0 | 0.00 | 0.00 | 0.00 | 83 | 1011.9 |
| 20260906040140 | 24 | 81 | 4.8 | 0.0 | 0.00 | 0.00 | 0.00 | 83 | 1011.9 |
| 20260906034553 | 24 | 75 | 3.2 | 0.0 | 0.00 | 0.00 | 0.00 | 83 | 1011.8 |
| 20260906033108 | 25 | 73 | 3.2 | 0.0 | 0.00 | 0.00 | 0.00 | 82 | 1011.7 |
| 20260906031542 | 25 | 74 | 3.2 | 0.0 | 0.00 | 0.00 | 0.00 | 82 | 1011.5 |
| 20260906030020 | 25 | 85 | 3.2 | 0.0 | 0.00 | 0.00 | 0.00 | 81 | 1011.3 |
| 20260906024605 | 25 | 71 | 3.2 | 0.0 | 0.00 | 0.00 | 0.00 | 81 | 1011.1 |
| 20260906023002 | 25 | 78 | 4.8 | 0.0 | 0.00 | 0.00 | 0.00 | 80 | 1010.7 |
| 20260906021533 | 26 | 89 | 3.2 | 0.0 | 0.00 | 0.00 | 0.00 | 79 | 1010.4 |
| 20260906020004 | 26 | 78 | 3.2 | 0.0 | 0.00 | 0.00 | 0.00 | 78 | 1010.3 |
| 20260906014533 | 26 | 86 | 3.2 | 0.0 | 0.00 | 0.00 | 0.00 | 77 | 1010.1 |
| 20260906013021 | 27 | 78 | 3.2 | 0.0 | 0.00 | 0.00 | 0.00 | 76 | 1009.9 |
| 20260906011555 | 27 | 86 | 3.2 | 0.0 | 0.00 | 0.00 | 0.00 | 75 | 1009.7 |
| 20260906010045 | 28 | 86 | 3.2 | 0.0 | 0.00 | 0.00 | 0.00 | 71 | 1009.6 |
| 20260906004513 | 29 | 105 | 4.8 | 0.0 | 0.00 | 0.00 | 0.00 | 68 | 1009.4 |
| 20260906003056 | 30 | 134 | 4.8 | 0.0 | 0.00 | 0.00 | 0.00 | 65 | 1009.5 |
| 20260906001534 | 31 | 140 | 3.2 | 0.0 | 0.00 | 0.00 | 0.00 | 63 | 1009.7 |
| 20260906000015 | 32 | 122 | 6.4 | 0.0 | 0.00 | 0.00 | 0.00 | 61 | 1009.8 |
| 20260905234608 | 32 | 97 | 6.4 | 0.0 | 0.00 | 0.00 | 0.00 | 58 | 1009.8 |
| 20260905233025 | 33 | 114 | 8.0 | 0.0 | 0.00 | 0.00 | 0.00 | 59 | 1009.6 |
| 20260905231554 | 33 | 114 | 8.0 | 0.0 | 0.00 | 0.00 | 0.00 | 58 | 1009.6 |
| 20260905230019 | 33 | 142 | 9.7 | 0.0 | 0.00 | 0.00 | 0.00 | 56 | 1009.6 |
| 20260905224615 | 34 | 95 | 9.7 | 0.0 | 0.00 | 0.00 | 0.00 | 56 | 1009.6 |
| 20260905223027 | 34 | 144 | 11.3 | 0.0 | 0.00 | 0.00 | 0.00 | 54 | 1009.6 |
| 20260905221603 | 34 | 144 | 9.7 | 0.0 | 0.00 | 0.00 | 0.00 | 55 | 1009.6 |
| 20260905220021 | 33 | 97 | 9.7 | 0.0 | 0.00 | 0.00 | 0.00 | 58 | 1009.6 |
| 20260905214506 | 33 | 136 | 11.3 | 0.0 | 0.00 | 0.00 | 0.00 | 56 | 1009.6 |
| 20260905213052 | 33 | 115 | 11.3 | 0.0 | 0.00 | 0.00 | 0.00 | 57 | 1009.7 |
| 20260905211540 | 34 | 109 | 12.9 | 0.0 | 0.00 | 0.00 | 0.00 | 54 | 1009.8 |
| 20260905204515 | 34 | 88 | 11.3 | 0.0 | 0.00 | 0.00 | 0.00 | 58 | 1010.4 |
| 20260905203046 | 34 | 347 | 9.7 | 0.0 | 0.00 | 0.00 | 0.00 | 63 | 1010.6 |
| 20260905201513 | 33 | 340 | 11.3 | 0.0 | 0.00 | 0.00 | 0.00 | 63 | 1011.0 |
| 20260905200049 | 34 | 10 | 9.7 | 0.0 | 0.00 | 0.00 | 0.00 | 62 | 1011.2 |
| 20260905194519 | 33 | 55 | 12.9 | 0.0 | 0.00 | 0.00 | 0.00 | 62 | 1011.7 |
| 20260905193051 | 34 | 36 | 9.7 | 0.0 | 0.00 | 0.00 | 0.00 | 60 | 1012.0 |
| 20260905191525 | 33 | 50 | 9.7 | 0.0 | 0.00 | 0.00 | 0.00 | 61 | 1012.2 |